Weather History for KAUH - March, 2014

Change the Weather History Date:

Saturday, March 29, 2014

  Actual Average Record
Temperature  
Mean Temperature 39 °F -  
Max Temperature 62 °F 54 °F 89 °F (1986)
Min Temperature 16 °F 32 °F 14 °F (1969)
Degree Days  
Heating Degree Days 26    
Moisture  
Dew Point 26 °F    
Average Humidity 65    
Maximum Humidity 100    
Minimum Humidity 28    
Precipitation  
Precipitation 0.00 in - - ()
Sea Level Pressure  
Sea Level Pressure 30.16 in    
Wind  
Wind Speed 8 mph (SSW)    
Max Wind Speed 20 mph    
Max Gust Speed 30 mph    
Visibility 9 miles    
Events      
Averages and records for this station are not official NWS values.
T = Trace of Precipitation, MM = Missing Value Source: NWS Daily Summary

Daily Weather History Graph

Daily Weather History Graph

Search for Another Location

Airport or City:

Trip Planner

Search our weather history database for the weather conditions in past years. The results will help you decide how hot, cold, wet, or windy it might be!

Date:

Astronomy

Mar. 29, 2014 Rise Set
Actual Time 7:20 AM CDT 7:53 PM CDT
Civil Twilight 6:52 AM CDT 8:21 PM CDT
Nautical Twilight 6:20 AM CDT 8:53 PM CDT
Astronomical Twilight 5:46 AM CDT 9:27 PM CDT
Moon 6:30 AM CDT (3/29) 7:00 PM CDT (3/29)
Length of Visible Light 13h 28m
Length of Day
12h 33m
Waning Crescent, 2% of the Moon is Illuminated
Mar 29
Waning Crescent
Mar 30
New
Apr 7
First Quarter
Apr 15
Full
Apr 22
Last Quarter

Hourly Weather History & Observations

Time (CDT) Temp. Windchill Dew Point Humidity Pressure Visibility Wind Dir Wind Speed Gust Speed Precip Events Conditions
12:15 AM 26.4 °F 22.4 °F 25.3 °F 96% 30.25 in 10.0 mi NNW 3.5 mph - N/A   Clear
12:35 AM 25.3 °F 19.7 °F 24.6 °F 97% 30.25 in 7.0 mi North 4.6 mph - N/A   Clear
1:15 AM 23.4 °F 16.2 °F 22.3 °F 96% 30.25 in 7.0 mi North 5.8 mph - N/A   Clear
1:35 AM 21.6 °F 13.0 °F 20.8 °F 97% 30.26 in 7.0 mi NW 6.9 mph - N/A   Clear
1:55 AM 23.5 °F 17.6 °F 23.0 °F 98% 30.26 in 10.0 mi NW 4.6 mph - N/A   Clear
2:15 AM 23.0 °F 15.8 °F 22.3 °F 97% 30.26 in 10.0 mi NW 5.8 mph - N/A   Clear
2:35 AM 21.9 °F 13.4 °F 21.2 °F 97% 30.26 in 10.0 mi NNW 6.9 mph - N/A   Clear
2:55 AM 23.7 °F 16.6 °F 23.0 °F 97% 30.25 in 10.0 mi North 5.8 mph - N/A   Clear
3:15 AM 22.1 °F 17.4 °F 21.4 °F 97% 30.25 in 10.0 mi North 3.5 mph - N/A   Clear
3:35 AM 21.6 °F 16.8 °F 21.2 °F 99% 30.26 in 7.0 mi NW 3.5 mph - N/A   Clear
3:55 AM 20.7 °F 15.8 °F 20.3 °F 99% 30.26 in 10.0 mi WNW 3.5 mph - N/A   Clear
4:15 AM 21.7 °F - 21.2 °F 98% 30.26 in 7.0 mi Calm Calm - N/A   Clear
4:35 AM 20.7 °F - 20.3 °F 99% 30.25 in 7.0 mi Calm Calm - N/A   Clear
4:55 AM 20.1 °F - 19.6 °F 98% 30.25 in 7.0 mi Calm Calm - N/A   Clear
5:15 AM 20.3 °F 15.4 °F 20.1 °F 99% 30.25 in 4.0 mi NW 3.5 mph - N/A   Clear
5:35 AM 18.5 °F - 17.6 °F 96% 30.25 in 5.0 mi Calm Calm - N/A   Clear
5:55 AM 16.9 °F 9.8 °F 15.8 °F 96% 30.26 in 7.0 mi NNW 4.6 mph - N/A   Clear
6:15 AM 20.1 °F 13.6 °F 19.8 °F 99% 30.25 in 7.0 mi North 4.6 mph - N/A   Clear
6:35 AM 16.3 °F 10.8 °F 14.9 °F 94% 30.26 in 5.0 mi NW 3.5 mph - N/A   Clear
6:55 AM 18.7 °F - 18.1 °F 98% 30.26 in 4.0 mi Calm Calm - N/A   Clear
7:15 AM 16.9 °F 11.5 °F 15.4 °F 94% 30.27 in 2.5 mi WNW 3.5 mph - N/A   Clear
7:35 AM 17.6 °F - 16.7 °F 96% 30.26 in 5.0 mi Calm Calm - N/A   Clear
7:55 AM 18.0 °F - 17.1 °F 96% 30.27 in 5.0 mi Calm Calm - N/A   Clear
8:15 AM 19.9 °F - 19.6 °F 99% 30.27 in 0.8 mi Calm Calm - N/A   Mist
8:35 AM 22.8 °F - 22.3 °F 98% 30.27 in 4.0 mi Calm Calm - N/A   Clear
8:55 AM 24.4 °F - 24.4 °F 100% 30.27 in 4.0 mi Calm Calm - N/A   Clear
9:15 AM 26.4 °F - 26.4 °F 100% 30.27 in 5.0 mi Calm Calm - N/A   Clear
9:35 AM 28.2 °F 24.4 °F 28.2 °F 100% 30.28 in 10.0 mi South 3.5 mph - N/A   Clear
9:55 AM 30.2 °F 24.3 °F 30.2 °F 100% 30.28 in 10.0 mi SW 5.8 mph - N/A   Clear
10:15 AM 31.8 °F 26.2 °F 31.6 °F 99% 30.27 in 10.0 mi SW 5.8 mph - N/A   Clear
10:35 AM 34.3 °F 27.7 °F 29.3 °F 82% 30.27 in 10.0 mi SSW 8.1 mph - N/A   Clear
10:55 AM 36.3 °F 29.5 °F 28.8 °F 74% 30.27 in 10.0 mi SSW 9.2 mph - N/A   Clear
11:15 AM 38.8 °F 33.2 °F 28.9 °F 68% 30.27 in 10.0 mi SSW 8.1 mph - N/A   Clear
11:35 AM 40.5 °F 33.6 °F 28.9 °F 64% 30.25 in 10.0 mi SSW 11.5 mph - N/A   Clear
11:55 AM 42.3 °F 35.5 °F 28.8 °F 59% 30.25 in 10.0 mi SSW 12.7 mph - N/A   Clear
12:15 PM 44.4 °F 37.5 °F 29.3 °F 55% 30.24 in 10.0 mi SSW 15.0 mph 19.6 mph N/A   Clear
12:35 PM 45.7 °F 39.5 °F 29.3 °F 53% 30.23 in 10.0 mi SSW 13.8 mph 18.4 mph N/A   Clear
12:55 PM 47.5 °F - 29.3 °F 49% 30.22 in 10.0 mi SSW 13.8 mph - N/A   Clear
1:15 PM 48.9 °F - 29.7 °F 47% 30.20 in 10.0 mi SSW 15.0 mph 20.7 mph N/A   Clear
1:35 PM 51.1 °F - 29.1 °F 43% 30.19 in 10.0 mi South 15.0 mph 23.0 mph N/A   Clear
1:55 PM 52.0 °F - 29.5 °F 42% 30.17 in 10.0 mi South 12.7 mph 17.3 mph N/A   Clear
2:15 PM 54.0 °F - 29.1 °F 39% 30.15 in 10.0 mi SSW 16.1 mph 21.9 mph N/A   Clear
2:35 PM 55.2 °F - 28.4 °F 36% 30.13 in 10.0 mi South 18.4 mph 21.9 mph N/A   Clear
2:55 PM 56.1 °F - 28.4 °F 35% 30.12 in 10.0 mi South 16.1 mph 24.2 mph N/A   Clear
3:15 PM 57.6 °F - 28.2 °F 33% 30.11 in 10.0 mi South 18.4 mph 25.3 mph N/A   Clear
3:35 PM 59.2 °F - 28.8 °F 31% 30.10 in 10.0 mi South 16.1 mph 24.2 mph N/A   Clear
3:55 PM 60.3 °F - 28.0 °F 29% 30.09 in 10.0 mi SSW 19.6 mph 25.3 mph N/A   Clear
4:15 PM 61.0 °F - 27.7 °F 28% 30.08 in 10.0 mi South 15.0 mph 25.3 mph N/A   Clear
4:35 PM 59.9 °F - 27.9 °F 30% 30.06 in 10.0 mi SSW 16.1 mph 25.3 mph N/A   Clear
4:55 PM 62.1 °F - 28.2 °F 28% 30.05 in 10.0 mi South 18.4 mph 23.0 mph N/A   Unknown
5:15 PM 61.7 °F - 28.0 °F 28% 30.04 in 10.0 mi South 19.6 mph 29.9 mph N/A   Clear
5:35 PM 61.0 °F - 28.2 °F 29% 30.04 in 10.0 mi SSW 19.6 mph 27.6 mph N/A   Clear
5:55 PM 60.3 °F - 28.4 °F 30% 30.04 in 10.0 mi SSW 19.6 mph 27.6 mph N/A   Clear
6:15 PM 60.6 °F - 28.6 °F 30% 30.02 in 10.0 mi South 19.6 mph 25.3 mph N/A   Clear
6:35 PM 61.3 °F - 28.6 °F 29% 30.02 in 10.0 mi South 16.1 mph 24.2 mph N/A   Clear
6:55 PM 60.1 °F - 28.4 °F 30% 30.01 in 10.0 mi South 19.6 mph 26.5 mph N/A   Clear
7:15 PM 59.0 °F - 28.4 °F 31% 30.01 in 10.0 mi South 18.4 mph 23.0 mph N/A   Clear
7:35 PM 58.5 °F - 28.4 °F 32% 30.01 in 10.0 mi South 13.8 mph 19.6 mph N/A   Clear
7:55 PM 56.7 °F - 28.4 °F 34% 30.00 in 10.0 mi South 16.1 mph - N/A   Clear
8:15 PM 55.2 °F - 28.2 °F 36% 30.00 in 10.0 mi South 16.1 mph - N/A   Clear
8:35 PM 54.1 °F - 28.8 °F 38% 30.00 in 10.0 mi South 16.1 mph 21.9 mph N/A   Clear
8:55 PM 52.7 °F - 28.9 °F 40% 30.01 in 10.0 mi SSE 16.1 mph 20.7 mph N/A   Clear
9:15 PM 51.8 °F - 29.7 °F 43% 30.01 in 10.0 mi SSE 15.0 mph - N/A   Clear
9:35 PM 51.3 °F - 30.2 °F 44% 30.00 in 10.0 mi South 17.3 mph - N/A   Clear
9:55 PM 50.9 °F - 30.2 °F 45% 30.00 in 10.0 mi South 17.3 mph 23.0 mph N/A   Clear
10:15 PM 50.2 °F - 30.2 °F 46% 30.00 in 10.0 mi South 17.3 mph - N/A   Clear
10:35 PM 50.0 °F - 30.2 °F 47% 29.99 in 10.0 mi SSE 16.1 mph 21.9 mph N/A   Clear
10:55 PM 50.7 °F - 30.4 °F 46% 29.99 in 10.0 mi South 16.1 mph 23.0 mph N/A   Clear
11:15 PM 51.1 °F - 30.6 °F 45% 29.99 in 10.0 mi South 16.1 mph 21.9 mph N/A   Clear
11:35 PM 50.9 °F - 30.4 °F 45% 29.99 in 10.0 mi South 17.3 mph 24.2 mph N/A   Clear
11:55 PM 50.4 °F - 30.6 °F 47% 29.99 in 10.0 mi South 17.3 mph 24.2 mph N/A   Clear